PDT,Max TemperatureF,Mean TemperatureF,Min TemperatureF,Max Dew PointF,MeanDew PointF,Min DewpointF,Max Humidity, Mean Humidity, Min Humidity, Max Sea Level PressureIn, Mean Sea Level PressureIn, Min Sea Level PressureIn, Max VisibilityMiles, Mean VisibilityMiles, Min VisibilityMiles, Max Wind SpeedMPH, Mean Wind SpeedMPH, Max Gust SpeedMPH,PrecipitationIn, CloudCover, Events, WindDirDegrees
2013-5-1,97,81,65,50,17,-13,51,27,3,30.04,29.88,29.68,10,10,9,18,6,24,0.00,0,,323
2013-5-2,92,83,73,5,-5,-18,5,3,1,30.22,30.11,30.01,10,10,10,22,11,26,0.00,0,,323
2013-5-3,97,83,68,22,9,1,9,6,3,30.01,29.86,29.72,10,10,10,14,7,17,0.00,1,,187
2013-5-4,97,80,63,37,24,10,34,19,4,29.72,29.63,29.55,10,10,10,24,5,33,0.00,1,,324
2013-5-5,80,73,66,48,44,41,45,37,28,29.82,29.75,29.66,10,10,10,24,10,29,0.00,2,,315
2013-5-6,77,69,60,51,46,41,64,49,33,29.94,29.88,29.81,10,10,10,24,9,29,T,2,,326
2013-5-7,80,69,57,46,41,36,53,37,21,29.96,29.92,29.86,10,10,10,22,7,29,0.00,1,,14
2013-5-8,84,72,60,47,44,36,60,40,20,30.00,29.95,29.90,10,10,10,21,7,26,0.00,0,,317
2013-5-9,89,75,61,53,46,42,56,39,21,29.96,29.93,29.87,10,10,10,23,7,32,0.00,2,Rain,304
2013-5-10,98,83,67,52,44,32,58,35,11,30.00,29.94,29.86,10,10,10,16,5,21,0.00,1,,322
2013-5-11,104,88,72,48,38,25,38,23,7,29.99,29.95,29.89,10,10,10,14,4,21,0.00,0,,314
2013-5-12,106,90,73,45,36,27,35,21,6,30.00,29.93,29.83,10,10,10,16,6,21,0.00,0,,68
2013-5-13,108,91,74,47,35,28,33,20,6,29.91,29.85,29.75,10,10,10,14,6,20,0.00,0,,327
2013-5-14,107,91,75,45,28,10,33,18,3,29.82,29.77,29.70,10,10,9,24,4,36,0.00,1,,309
2013-5-15,98,83,68,48,37,27,37,24,10,29.87,29.80,29.72,10,10,10,20,6,26,0.00,0,,315
2013-5-16,97,83,68,52,47,35,53,33,12,29.80,29.73,29.65,10,10,9,22,5,29,0.00,0,,331
2013-5-17,90,80,70,52,46,39,53,35,17,29.81,29.77,29.71,10,10,10,25,7,35,0.00,1,,308
2013-5-18,94,80,65,52,48,41,63,41,18,29.89,29.83,29.77,10,10,10,21,6,25,0.00,0,,318
2013-5-19,101,84,67,52,45,28,53,31,8,29.86,29.79,29.70,10,10,10,16,5,21,0.00,0,,308
2013-5-20,99,86,73,51,31,17,43,25,6,29.92,29.84,29.78,10,10,10,17,7,26,0.00,0,,330
2013-5-21,102,88,74,48,35,24,35,21,7,29.83,29.74,29.63,10,10,10,13,6,17,0.00,1,,335
2013-5-22,97,84,71,45,38,26,34,22,9,29.66,29.62,29.56,10,10,10,30,7,36,0.00,0,,313
2013-5-23,91,77,62,48,41,28,60,36,11,29.75,29.70,29.64,10,10,10,24,6,30,0.00,0,,317
2013-5-24,93,79,65,48,40,31,52,33,13,29.85,29.79,29.74,10,10,10,18,6,24,0.00,0,,314
2013-5-25,92,78,63,46,37,22,52,30,8,29.87,29.81,29.77,10,10,10,20,6,26,0.00,0,,312
2013-5-26,91,78,64,48,42,34,56,36,16,29.89,29.83,29.77,10,10,10,21,7,26,0.00,0,,321
2013-5-27,97,83,68,51,46,41,47,32,16,29.82,29.75,29.66,10,10,10,21,7,29,0.00,1,,313
2013-5-28,91,80,69,53,51,49,57,41,24,29.66,29.62,29.56,10,10,10,26,12,33,0.00,1,,317
2013-5-29,99,83,67,53,46,37,59,36,13,29.69,29.62,29.54,10,10,10,13,5,18,0.00,0,,316
2013-5-30,98,85,72,57,51,46,48,33,18,29.76,29.70,29.63,10,10,10,14,5,18,0.00,0,,77
2013-5-31,102,88,73,55,52,41,53,33,13,29.82,29.75,29.70,10,10,10,14,5,17,0.00,0,,73